Miscellaneous Local Product
Issued by NWS North Platte, NE

Home | Current Version | Previous Version | Graphics & Text | Print | Product List | Glossary On
Versions: 1 2 3 4 5 6 7 8 9 10 11 12 13 14 15 16 17 18 19 20 21 22 23 24 25 26 27 28 29 30 31 32 33 34 35 36 37 38 39 40 41 42 43 44 45 46 47 48 49 50
000
AXUS43 KLBF 311310
MISLBF


WESTERN AND NORTH CENTRAL NEBRASKA HOURLY WEATHER ROUNDUP
NATIONAL WEATHER SERVICE NORTH PLATTE NE
700 AM CST SAT JAN 31 2015

***STATIONS NOT REPORTING VARIABLES SUCH AS SKY/WEATHER OR
PRESSURE ARE PROVIDED BY THE NEBRASKA DEPARTMENT OF
ROADS...RAWS...AND APRS NETWORKS...AND ARE NOT UNDER
NATIONAL WEATHER SERVICE QUALITY CONTROL***

...OBSERVATIONS IN AND NEAR THE EASTERN PANHANDLE OF NEBRASKA...

CITY           SKY/WX    TMP DP  RH WIND       PRES   REMARKS
PINE RIDGE     CLOUDY    26  22  84 CALM      29.99F
CHADRON        CLOUDY    27  24  89 CALM      29.99F
ALLIANCE       CLOUDY    30  27  88 CALM      29.94F
SIDNEY         FLURRIES  31  28  89 N8        29.91F WCI  23
WHITECLAY        N/A     24  22  89 CALM        N/A
CRESCENT LAKE    N/A     30  29  96 CALM        N/A
LISCO            N/A     34  29  85 N5          N/A  WCI  29
LEWELLEN         N/A     33  31  92 CALM        N/A
$$

...OBSERVATIONS IN NORTH CENTRAL NEBRASKA...

CITY           SKY/WX    TMP DP  RH WIND       PRES   REMARKS
VALENTINE      CLOUDY    29  24  82 NE9       30.01R WCI  20
THEDFORD       CLOUDY    35  34  94 CALM      29.99S FOG
AINSWORTH      CLOUDY    30  30  98 NE3       30.01R
O`NEILL        CLOUDY    31  31  99 S3        30.04S
ORD            CLOUDY    35  31  85 S8        30.04S WCI  29
BROKEN BOW     CLOUDY    35  32  88 S6        30.01F WCI  30
BROWNLEE         N/A     32  32  98 CALM        N/A
SPRINGVIEW       N/A     26  24  91 CALM        N/A
BREWSTER         N/A     36  34  94 S7          N/A  WCI  30
ROSE             N/A     36  36  99 E3          N/A
NEWPORT          N/A     32  30  93 N3          N/A
SARGENT          N/A     34  30  86 CALM        N/A
COMSTOCK         N/A     37  35  94 S7          N/A  WCI  31
CHAMBERS         N/A     35  32  90 S5          N/A  WCI  31
EWING            N/A     35  33  92 S3          N/A
$$

...OBSERVATIONS IN SOUTHWEST NEBRASKA AND FAR NORTHEAST COLORADO...

CITY           SKY/WX    TMP DP  RH WIND       PRES   REMARKS
WRAY           FOG      N/A N/A N/A NE5       29.92R VSB 1
IMPERIAL       CLOUDY    32  31  96 E6        29.94F FOG     WCI  26
OGALLALA       FOG       33  33  99 E5        29.95S VSB 1/2 WCI  28
NORTH PLATTE   CLOUDY    33  31  92 E5        29.98F WCI  29
MCCOOK         CLOUDY    34  32  92 SE7       29.97F FOG     WCI  28
LEXINGTON      FLURRIES  33  32  94 SE5       30.02F WCI  29
BRADY            N/A     32  29  90 CALM        N/A
GOTHENBURG       N/A     33  30  90 E3          N/A
CALLAWAY         N/A     32  32 100 S8          N/A  WCI  25
$$

...NORTH PLATTE AREA...

CITY           SKY/WX    TMP DP  RH WIND       PRES   REMARKS
AIRPORT        CLOUDY    33  31  92 E5        29.98F WCI  29
DOWNTOWN         N/A     32  30  94 CALM        N/A
$$

...SOME WEATHER OBSERVATIONS FROM AROUND THE REGION...

CITY           SKY/WX    TMP DP  RH WIND       PRES   REMARKS
DENVER         CLOUDY    32  24  72 CALM      29.91F
LARAMIE        CLOUDY    26  24  92 CALM      29.88F
CHEYENNE       CLOUDY    30  24  78 N7        29.89F WCI  23
SCOTTSBLUFF    CLOUDY    31  28  89 NW5       29.94F WCI  26
RAPID CITY     CLOUDY    29  22  75 CALM      30.02R
PIERRE         CLOUDY    24  23  96 NE17      30.11R FOG     WCI  11
WINNER         FAIR      27  24  89 NE9       30.06R WCI  18
SIOUX FALLS    MOCLDY    26  23  88 NE12      30.11S WCI  16
OMAHA          CLOUDY    36  31  82 SE10      30.17F WCI  28
GRAND ISLAND   LGT SNOW  32  31  96 S10       30.08F FOG     WCI  24
KANSAS CITY    LGT RAIN  34  33  96 SE5       30.25S WCI  30
WICHITA        FLURRIES  36  29  75 S7        30.17R WCI  30
HAYS           CLOUDY    32  25  74 SE9       30.05F WCI  24
LIBERAL        CLOUDY    36  30  80 S13       30.04S WCI  27
GOODLAND       CLOUDY    34  34 100 S9        29.91S FOG     WCI  27
$$



USA.gov is the U.S. government's official web portal to all federal, state and local government web resources and services.